カタログに戻る

STARLINK-31744

運用中通信VLEO
NORAD 59494·PAYLOAD·🇺🇸 United States

打ち上げ Apr 13, 2024 から Cape Canaveral Space Force Station

Loading…

次のパス (今後24時間)

TLE

最新Source: CelesTrak SupGP

元期: Sep 14, 2026, 21:33 UTC

1 59494C 24071L   26257.89840278  .00002547  00000+0  92281-4 0  2573
2 59494  43.0014 358.8562 0001544 279.4063  93.7387 15.27566914    11

AllMySatでSTARLINK-31744をリアルタイム追跡

Download on the App Store